Doha, Qatar

2:09 AM +03 on June 24, 2017 (GMT +0300)
Doha International

Weather History for OTBD - July, 2013

Change the Weather History Date:

Friday, July 12, 2013

  Actual Average Record
Temperature  
Mean Temperature 103 °F -  
Max Temperature 115 °F 106 °F 115 °F (2013)
Min Temperature 91 °F 84 °F 87 °F (2002)
Cooling Degree Days 38    
Growing Degree Days 53 (Base 50)    
Moisture  
Dew Point 69 °F    
Average Humidity 38    
Maximum Humidity 59    
Minimum Humidity 9    
Precipitation  
Precipitation 0.00 in 0.00 in - ()
Sea Level Pressure  
Sea Level Pressure 29.44 in    
Wind  
Wind Speed 6 mph ()    
Max Wind Speed 18 mph    
Max Gust Speed -    
Visibility 4.6 miles    
Events      
Averages and records for this station are not official NWS values.
T = Trace of Precipitation, MM = Missing Value Source: Averaged Metar Reports

Daily Weather History Graph

Daily Weather History Graph

Search for Another Location

Airport or City:

Trip Planner

Search our weather history database for the weather conditions in past years. The results will help you decide how hot, cold, wet, or windy it might be!

Date:

Astronomy

Jul. 12, 2013 Rise Set
Actual Time 4:51 AM +03 6:27 PM +03
Civil Twilight 4:25 AM +03 6:52 PM +03
Nautical Twilight 3:55 AM +03 7:23 PM +03
Astronomical Twilight 3:23 AM +03 7:54 PM +03
Moon 8:17 AM +03 (7/12) 8:56 PM +03 (7/12)
Length of Visible Light 14h 26m
Length of Day
13h 35m
Waxing Crescent, 15% of the Moon is Illuminated
Jul 12
Waxing Crescent
Jul 16
First Quarter
Jul 22
Full
Jul 29
Last Quarter
Aug 7
New

Hourly Weather History & Observations

Time (+03) Temp. Heat Index Dew Point Humidity Pressure Visibility Wind Dir Wind Speed Gust Speed Precip Events Conditions
12:00 AM 96.8 °F 100.7 °F 66.2 °F 37% 29.42 in 5.6 mi Variable 2.3 mph - N/A   Unknown
12:30 AM 96.8 °F 107.3 °F 73.4 °F 47% 29.42 in 5.6 mi Variable 2.3 mph - N/A   Unknown
1:00 AM 95.0 °F 101.3 °F 69.8 °F 44% 29.42 in 5.0 mi South 3.5 mph - N/A   Unknown
1:30 AM 95.0 °F 107.4 °F 75.2 °F 53% 29.42 in 5.0 mi Variable 2.3 mph - N/A   Unknown
2:00 AM 95.0 °F 104.5 °F 73.4 °F 49% 29.42 in 5.0 mi South 4.6 mph - N/A   Unknown
2:30 AM 95.0 °F 107.4 °F 75.2 °F 53% 29.42 in - North - - N/A   Unknown
3:00 AM 93 °F - 76 °F 48% 29.44 in 4 mi SW 4.6 mph - -   Widespread Dust
3:00 AM 93.2 °F 105.0 °F 75.2 °F 56% 29.42 in 4.3 mi SW 4.6 mph - N/A   Unknown
3:30 AM 93.2 °F 105.0 °F 75.2 °F 56% 29.44 in 4.3 mi SSW 3.5 mph - N/A   Unknown
4:00 AM 91.4 °F 102.5 °F 75.2 °F 59% 29.44 in 4.3 mi SW 5.8 mph - N/A   Unknown
4:30 AM 91.4 °F 98.4 °F 71.6 °F 52% 29.44 in 4.3 mi SW 5.8 mph - N/A   Unknown
5:00 AM 91.4 °F 98.4 °F 71.6 °F 52% 29.44 in 4.3 mi SW 6.9 mph - N/A   Unknown
5:30 AM 93.2 °F 100.5 °F 71.6 °F 49% 29.47 in 4.3 mi SW 4.6 mph - N/A   Unknown
6:00 AM 93 °F - 70 °F 38% 29.48 in 4 mi WSW 4.6 mph - -   Widespread Dust
6:00 AM 93.2 °F 98.8 °F 69.8 °F 46% 29.47 in 4.3 mi WSW 4.6 mph - N/A   Unknown
6:30 AM 95.0 °F 99.5 °F 68.0 °F 41% 29.47 in 4.3 mi WSW 4.6 mph - N/A   Unknown
7:00 AM 98.6 °F 101.0 °F 64.4 °F 32% 29.47 in 4.3 mi WSW 3.5 mph - N/A   Unknown
8:00 AM 104.0 °F 104.6 °F 59.0 °F 23% 29.47 in 4.3 mi West 3.5 mph - N/A   Unknown
9:00 AM 107.6 °F 107.5 °F 57.2 °F 19% 29.47 in 4.3 mi WSW 3.5 mph - N/A   Unknown
10:00 AM 113.0 °F - 42.8 °F 10% 29.47 in 5.0 mi WNW 6.9 mph - N/A   Unknown
11:00 AM 114.8 °F - 42.8 °F 9% 29.47 in 5.0 mi NW 8.1 mph - N/A   Unknown
11:30 AM 113.0 °F 111.1 °F 53.6 °F 14% 29.47 in 5.0 mi NNE 9.2 mph - N/A   Unknown
12:00 PM 110 °F - 65 °F 15% 29.48 in 5 mi NE 10.4 mph - -   Widespread Dust
12:00 PM 109.4 °F 113.7 °F 64.4 °F 23% 29.47 in 5.0 mi NE 10.4 mph - N/A   Unknown
12:30 PM 104.0 °F 124.4 °F 78.8 °F 45% 29.47 in 4.3 mi ESE 16.1 mph - N/A   Unknown
1:00 PM 107.6 °F 112.3 °F 64.4 °F 25% 29.47 in 4.3 mi NE 10.4 mph - N/A   Unknown
1:30 PM 107.6 °F 115.0 °F 68.0 °F 28% 29.44 in 4.3 mi ENE 8.1 mph - N/A   Unknown
2:00 PM 107.6 °F 112.3 °F 64.4 °F 25% 29.44 in 4.3 mi NNE 8.1 mph - N/A   Unknown
2:30 PM 107.6 °F 113.2 °F 66.2 °F 26% 29.42 in 4.3 mi North 9.2 mph - N/A   Unknown
3:00 PM 106 °F - 69 °F 21% 29.44 in 4 mi NE 9.2 mph - -   Widespread Dust
3:00 PM 105.8 °F 113.2 °F 68.0 °F 30% 29.42 in 4.3 mi NE 9.2 mph - N/A   Unknown
3:30 PM 105.8 °F 113.2 °F 68.0 °F 30% 29.42 in 4.3 mi NNE 8.1 mph - N/A   Unknown
4:00 PM 104.0 °F 114.0 °F 71.6 °F 35% 29.42 in 4.3 mi NE 10.4 mph - N/A   Unknown
4:30 PM 102.2 °F 111.7 °F 71.6 °F 37% 29.42 in 4.3 mi NE 9.2 mph - N/A   Unknown
5:00 PM 102.2 °F 111.7 °F 71.6 °F 37% 29.42 in 4.3 mi NNE 9.2 mph - N/A   Unknown
5:30 PM 100.4 °F 109.3 °F 71.6 °F 39% 29.42 in 4.3 mi North 8.1 mph - N/A   Unknown
6:00 PM 100 °F - 74 °F 34% 29.44 in 4 mi NNE 13.4 mph - -   Widespread Dust
6:00 PM 100.4 °F 111.9 °F 73.4 °F 42% 29.42 in 4.3 mi NNE 6.9 mph - N/A   Unknown
6:30 PM 98.6 °F 114.4 °F 77.0 °F 50% 29.44 in 4.3 mi North 6.9 mph - N/A   Unknown
7:00 PM 98.6 °F 114.4 °F 77.0 °F 50% 29.44 in 5.0 mi North 8.1 mph - N/A   Unknown
7:30 PM 96.8 °F 114.8 °F 78.8 °F 56% 29.44 in 5.0 mi North 9.2 mph - N/A   Unknown
8:00 PM 96.8 °F 114.8 °F 78.8 °F 56% 29.44 in 5.0 mi North 6.9 mph - N/A   Unknown
8:30 PM 96.8 °F 112.2 °F 77.0 °F 53% 29.44 in 5.6 mi North 8.1 mph - N/A   Unknown
9:00 PM 98 °F - 76 °F 40% 29.46 in 6 mi North 17.9 mph - -   Widespread Dust
9:00 PM 96.8 °F 112.2 °F 77.0 °F 53% 29.44 in 5.6 mi North 9.2 mph - N/A   Unknown
9:30 PM 98.6 °F 105.5 °F 69.8 °F 39% 29.44 in - North 8.1 mph - N/A   Clear
10:00 PM 98.6 °F 101.0 °F 64.4 °F 32% 29.44 in - NNW 8.1 mph - N/A   Clear
10:30 PM 98.6 °F 104.1 °F 68.0 °F 37% 29.44 in - NNW 6.9 mph - N/A   Clear
11:00 PM 98.6 °F 99.4 °F 60.8 °F 29% 29.44 in - NNW 6.9 mph - N/A   Clear